Location: Canet
(43.3261°N, 5.3723°E)
Time: 18:38:39
(UTC+00:00)

Iridium 4 Rocket - Pass Details

Date: 24 January 2021
Orbit: 583 x 906 km, 86.9° (Epoch: 02 March)

Event Time Altitude Azimuth Distance (km) Brightness Sun altitude
Rises 17:26:51 0° 7° (N) 3,440 6.6 -8.8°
Reaches altitude 10° 17:29:43 10° 19° (NNE) 2,454 5.8 -9.3°
Maximum altitude 17:34:23 27° 77° (ENE) 1,472 4.4 -10.1°
Drops below altitude 10° 17:38:42 10° 135° (SE) 2,264 5.7 -10.8°
Sets 17:41:14 0° 147° (SSE) 3,125 6.5 -11.3°
